Location: Unspecified
(43.4354°N, 0.0000°E)
Time: 17:55:55
(UTC+00:00)

S-56A Canister/Altair - Pass Details

Date: 04 July 2019
Orbit: 632 x 2500 km, 38.9° (Epoch: 14 July)

Event Time Altitude Azimuth Distance (km) Brightness Sun altitude
Rises 15:07:56 0° 271° (W) 5,888 12.7 47.1°
Reaches altitude 10° 15:12:10 10° 269° (W) 4,681 12.5 46.4°
Maximum altitude 15:24:24 66° 192° (SSW) 1,753 10.2 44.2°
Drops below altitude 10° 15:32:28 10° 112° (ESE) 3,177 10.4 42.8°
Sets 15:34:49 0° 109° (ESE) 3,933 10.8 42.3°
